Location: Marstown
(39.5056°N, 77.0820°W)
Time: 04:24:14
(UTC-04:00)

Tiangong - Visible Passes

Search period start: 08 May 2026 00:00
Search period end: 18 May 2026 00:00
Orbit: 374 x 381 km, 41.5° (Epoch: 8 May)

Date Brightness Start Highest point End Pass type
(mag) Time Alt. Az. Time Alt. Az. Time Alt. Az.
8 May 0.2 03:31:17 20° E 03:31:17 20° E 03:32:26 10° E visible
8 May -1.8 05:03:20 12° W 05:06:05 61° N 05:09:11 10° ENE visible
9 May -2.2 04:04:07 76° N 04:04:07 76° N 04:07:13 10° ENE visible
10 May 0.9 03:04:52 13° ENE 03:04:52 13° ENE 03:05:14 10° ENE visible
10 May -1.6 04:36:55 20° WNW 04:38:53 56° N 04:41:58 10° E visible
11 May -0.9 03:37:40 41° NE 03:37:40 41° NE 03:39:54 10° ENE visible
11 May -1.9 05:10:32 10° WNW 05:13:38 70° N 05:16:45 10° E visible
12 May -1.7 04:10:31 36° WNW 04:11:32 58° N 04:14:37 10° E visible
13 May 0.4 03:11:23 19° ENE 03:11:23 19° ENE 03:12:26 10° ENE visible
13 May -2.3 04:43:26 13° WNW 04:46:10 90° NNE 04:49:16 10° ESE visible
14 May -1.6 03:44:26 56° ENE 03:44:26 56° ENE 03:47:06 10° E visible
14 May -1.6 05:17:40 10° W 05:20:35 37° SSW 05:23:30 10° SE visible
15 May -2.3 04:17:44 44° W 04:18:29 64° SSW 04:21:34 10° ESE visible
16 May 0.8 03:19:17 11° ESE 03:19:17 11° ESE 03:19:23 10° ESE visible
16 May -1.0 04:51:25 18° WSW 04:52:43 24° SSW 04:55:18 10° SSE visible
17 May 0.6 03:53:26 11° SE 03:53:26 11° SE 03:53:33 10° SE visible
